Time,TemperatureF,DewpointF,PressureIn,WindDirection,WindDirectionDegrees,WindSpeedMPH,WindSpeedGustMPH,Humidity,HourlyPrecipIn,Conditions,Clouds,dailyrainin,SoftwareType,DateUTC
2013-11-01 00:02:00,68.5,-35.7,29.77,South,180,10.4,-999.0,1,-99.99,,,0.00,Acu-Link.com,2013-11-01 04:02:00,
2013-11-01 00:17:00,68.7,-35.6,29.76,SSW,202,3.2,-999.0,1,-99.99,,,0.00,Acu-Link.com,2013-11-01 04:17:00,
2013-11-01 00:32:00,68.9,-35.5,29.76,SSW,202,4.7,-999.0,1,-99.99,,,0.00,Acu-Link.com,2013-11-01 04:32:00,
2013-11-01 00:47:00,68.7,-35.6,29.74,WNW,292,2.7,-999.0,1,-99.99,,,0.00,Acu-Link.com,2013-11-01 04:47:00,
2013-11-01 01:02:00,68.4,-35.8,29.74,SW,225,8.3,-999.0,1,-99.99,,,0.00,Acu-Link.com,2013-11-01 05:02:00,
2013-11-01 01:17:00,68.5,-35.7,29.74,South,180,9.4,-999.0,1,-99.99,,,0.00,Acu-Link.com,2013-11-01 05:17:00,
2013-11-01 01:33:00,68.5,-35.7,29.72,WNW,292,5.3,-999.0,1,-99.99,,,0.00,Acu-Link.com,2013-11-01 05:33:00,
2013-11-01 01:48:00,67.1,-36.6,29.70,South,180,9.4,-999.0,1,-99.99,,,0.00,Acu-Link.com,2013-11-01 05:48:00,
2013-11-01 02:03:00,69.1,-35.4,29.70,SSW,202,8.9,-999.0,1,-99.99,,,0.00,Acu-Link.com,2013-11-01 06:03:00,
2013-11-01 02:18:00,69.8,-34.9,29.70,SSW,202,6.8,-999.0,1,-99.99,,,0.00,Acu-Link.com,2013-11-01 06:18:00,
2013-11-01 02:33:00,70.0,-34.8,29.68,South,180,6.8,-999.0,1,-99.99,,,0.00,Acu-Link.com,2013-11-01 06:33:00,
2013-11-01 02:48:00,70.0,-34.8,29.69,South,180,12.5,-999.0,1,-99.99,,,0.00,Acu-Link.com,2013-11-01 06:48:00,
2013-11-01 03:04:00,69.6,-35.1,29.68,SSW,202,8.3,-999.0,1,-99.99,,,0.00,Acu-Link.com,2013-11-01 07:04:00,
2013-11-01 03:19:00,69.4,-35.2,29.68,SW,225,10.4,-999.0,1,-99.99,,,0.00,Acu-Link.com,2013-11-01 07:19:00,
2013-11-01 03:34:00,69.3,-35.2,29.67,SSE,157,4.2,-999.0,1,-99.99,,,0.00,Acu-Link.com,2013-11-01 07:34:00,
2013-11-01 03:49:00,69.4,-35.2,29.67,South,180,5.3,-999.0,1,-99.99,,,0.00,Acu-Link.com,2013-11-01 07:49:00,
2013-11-01 04:04:00,69.6,-35.1,29.66,West,270,7.3,-999.0,1,-99.99,,,0.00,Acu-Link.com,2013-11-01 08:04:00,
2013-11-01 04:19:00,69.6,-35.1,29.65,SSW,202,8.3,-999.0,1,-99.99,,,0.00,Acu-Link.com,2013-11-01 08:19:00,
2013-11-01 04:35:00,69.1,-35.4,29.64,SSW,202,3.7,-999.0,1,-99.99,,,0.00,Acu-Link.com,2013-11-01 08:35:00,
2013-11-01 04:50:00,69.4,-35.2,29.64,South,180,5.8,-999.0,1,-99.99,,,0.00,Acu-Link.com,2013-11-01 08:50:00,
2013-11-01 05:05:00,69.1,-35.4,29.61,South,180,6.3,-999.0,1,-99.99,,,0.00,Acu-Link.com,2013-11-01 09:05:00,
2013-11-01 05:20:00,69.3,-35.2,29.62,ESE,112,4.7,-999.0,1,-99.99,,,0.00,Acu-Link.com,2013-11-01 09:20:00,
2013-11-01 05:35:00,68.9,-35.5,29.62,SW,225,6.8,-999.0,1,-99.99,,,0.00,Acu-Link.com,2013-11-01 09:35:00,
2013-11-01 05:51:00,68.9,-35.5,29.62,South,180,14.0,-999.0,1,-99.99,,,0.00,Acu-Link.com,2013-11-01 09:51:00,
2013-11-01 06:06:00,68.9,-35.5,29.62,SW,225,5.8,-999.0,1,-99.99,,,0.00,Acu-Link.com,2013-11-01 10:06:00,
2013-11-01 06:21:00,69.1,-35.4,29.61,SSW,202,9.9,-999.0,1,-99.99,,,0.00,Acu-Link.com,2013-11-01 10:21:00,
2013-11-01 06:37:00,69.4,-35.2,29.61,WSW,247,7.8,-999.0,1,-99.99,,,0.00,Acu-Link.com,2013-11-01 10:37:00,
2013-11-01 06:52:00,69.3,-35.2,29.61,SSW,202,7.8,-999.0,1,-99.99,,,0.00,Acu-Link.com,2013-11-01 10:52:00,
2013-11-01 07:07:00,69.3,-35.2,29.61,SW,225,4.7,-999.0,1,-99.99,,,0.00,Acu-Link.com,2013-11-01 11:07:00,
2013-11-01 07:22:00,69.4,-35.2,29.60,SW,225,7.8,-999.0,1,-99.99,,,0.00,Acu-Link.com,2013-11-01 11:22:00,
2013-11-01 07:37:00,69.4,-35.2,29.60,SSE,157,9.4,-999.0,1,-99.99,,,0.00,Acu-Link.com,2013-11-01 11:37:00,
2013-11-01 07:53:00,69.8,-34.9,29.59,SSE,157,6.3,-999.0,1,-99.99,,,0.00,Acu-Link.com,2013-11-01 11:53:00,
2013-11-01 08:08:00,70.2,-34.7,29.60,SSW,202,4.2,-999.0,1,-99.99,,,0.00,Acu-Link.com,2013-11-01 12:08:00,
2013-11-01 08:23:00,70.5,-34.5,29.61,South,180,14.0,-999.0,1,-99.99,,,0.00,Acu-Link.com,2013-11-01 12:23:00,
2013-11-01 08:39:00,70.3,-34.6,29.62,SSW,202,12.5,-999.0,1,-99.99,,,0.00,Acu-Link.com,2013-11-01 12:39:00,
2013-11-01 08:54:00,69.3,-35.2,29.62,SSW,202,10.9,-999.0,1,-99.99,,,0.00,Acu-Link.com,2013-11-01 12:54:00,
2013-11-01 09:09:00,70.9,-34.3,29.62,South,180,7.8,-999.0,1,-99.99,,,0.00,Acu-Link.com,2013-11-01 13:09:00,
2013-11-01 09:24:00,71.2,-34.1,29.62,SSW,202,12.5,-999.0,1,-99.99,,,0.00,Acu-Link.com,2013-11-01 13:24:00,
2013-11-01 09:39:00,71.6,-33.9,29.61,SW,225,13.0,-999.0,1,-99.99,,,0.00,Acu-Link.com,2013-11-01 13:39:00,
2013-11-01 09:54:00,71.6,-33.9,29.62,ESE,112,8.9,-999.0,1,-99.99,,,0.00,Acu-Link.com,2013-11-01 13:54:00,
2013-11-01 10:09:00,70.9,-34.3,29.62,SSW,202,8.9,-999.0,1,-99.99,,,0.00,Acu-Link.com,2013-11-01 14:09:00,
2013-11-01 10:25:00,69.6,-35.1,29.63,SSW,202,6.3,-999.0,1,-99.99,,,0.00,Acu-Link.com,2013-11-01 14:25:00,
2013-11-01 10:40:00,69.4,-35.2,29.61,SSE,157,5.8,-999.0,1,-99.99,,,0.01,Acu-Link.com,2013-11-01 14:40:00,
2013-11-01 10:55:00,69.8,-34.9,29.60,SSW,202,9.9,-999.0,1,-99.99,,,0.01,Acu-Link.com,2013-11-01 14:55:00,
2013-11-01 11:10:00,70.2,-34.7,29.61,SW,225,7.3,-999.0,1,-99.99,,,0.01,Acu-Link.com,2013-11-01 15:10:00,
2013-11-01 11:25:00,70.2,-34.7,29.62,SSW,202,11.4,-999.0,1,-99.99,,,0.01,Acu-Link.com,2013-11-01 15:25:00,
2013-11-01 11:40:00,69.6,-35.1,29.63,SW,225,8.3,-999.0,1,-99.99,,,0.02,Acu-Link.com,2013-11-01 15:40:00,
2013-11-01 11:55:00,69.8,-34.9,29.62,SW,225,14.0,-999.0,1,-99.99,,,0.02,Acu-Link.com,2013-11-01 15:55:00,
2013-11-01 12:11:00,70.2,-34.7,29.61,SW,225,8.9,-999.0,1,-99.99,,,0.02,Acu-Link.com,2013-11-01 16:11:00,
2013-11-01 12:26:00,70.7,-34.4,29.60,WSW,247,10.9,-999.0,1,-99.99,,,0.02,Acu-Link.com,2013-11-01 16:26:00,
2013-11-01 12:41:00,71.1,-34.2,29.60,SSW,202,7.8,-999.0,1,-99.99,,,0.02,Acu-Link.com,2013-11-01 16:41:00,
2013-11-01 12:56:00,72.3,-33.4,29.58,SW,225,6.8,-999.0,1,-99.99,,,0.02,Acu-Link.com,2013-11-01 16:56:00,
2013-11-01 13:11:00,72.7,-33.2,29.57,SSW,202,6.3,-999.0,1,-99.99,,,0.02,Acu-Link.com,2013-11-01 17:11:00,
2013-11-01 13:27:00,72.5,-33.3,29.57,South,180,11.9,-999.0,1,-99.99,,,0.02,Acu-Link.com,2013-11-01 17:27:00,
2013-11-01 13:42:00,72.7,-33.2,29.56,West,270,8.3,-999.0,1,-99.99,,,0.02,Acu-Link.com,2013-11-01 17:42:00,
2013-11-01 13:57:00,73.0,-33.0,29.56,South,180,7.3,-999.0,1,-99.99,,,0.02,Acu-Link.com,2013-11-01 17:57:00,
2013-11-01 14:12:00,73.6,-32.7,29.56,SW,225,11.9,-999.0,1,-99.99,,,0.02,Acu-Link.com,2013-11-01 18:12:00,
2013-11-01 14:27:00,73.0,-33.0,29.56,SW,225,13.5,-999.0,1,-99.99,,,0.02,Acu-Link.com,2013-11-01 18:27:00,
2013-11-01 14:43:00,73.2,-32.9,29.56,SW,225,10.4,-999.0,1,-99.99,,,0.02,Acu-Link.com,2013-11-01 18:43:00,
2013-11-01 14:58:00,73.8,-32.5,29.55,SSW,202,9.9,-999.0,1,-99.99,,,0.02,Acu-Link.com,2013-11-01 18:58:00,
2013-11-01 15:13:00,72.9,-33.1,29.54,SW,225,6.3,-999.0,1,-99.99,,,0.02,Acu-Link.com,2013-11-01 19:13:00,
2013-11-01 15:28:00,72.9,-33.1,29.54,SSW,202,3.7,-999.0,1,-99.99,,,0.02,Acu-Link.com,2013-11-01 19:28:00,
2013-11-01 15:43:00,72.5,-33.3,29.55,SW,225,6.3,-999.0,1,-99.99,,,0.02,Acu-Link.com,2013-11-01 19:43:00,
2013-11-01 15:58:00,71.1,-34.2,29.55,WSW,247,5.8,-999.0,1,-99.99,,,0.02,Acu-Link.com,2013-11-01 19:58:00,
2013-11-01 16:14:00,70.3,-34.6,29.55,SW,225,5.8,-999.0,1,-99.99,,,0.02,Acu-Link.com,2013-11-01 20:14:00,
2013-11-01 16:29:00,69.6,-35.1,29.56,WSW,247,5.8,-999.0,1,-99.99,,,0.02,Acu-Link.com,2013-11-01 20:29:00,
2013-11-01 16:44:00,69.8,-34.9,29.55,SW,225,4.2,-999.0,1,-99.99,,,0.02,Acu-Link.com,2013-11-01 20:44:00,
2013-11-01 17:00:00,69.3,-35.2,29.55,WNW,292,4.7,-999.0,1,-99.99,,,0.02,Acu-Link.com,2013-11-01 21:00:00,
2013-11-01 17:15:00,69.6,-35.1,29.55,WSW,247,5.3,-999.0,1,-99.99,,,0.02,Acu-Link.com,2013-11-01 21:15:00,
2013-11-01 17:30:00,69.3,22.6,29.55,SW,225,7.8,-999.0,17,-99.99,,,0.02,Acu-Link.com,2013-11-01 21:30:00,
2013-11-01 17:45:00,68.9,30.6,29.54,SSW,202,3.7,-999.0,24,-99.99,,,0.02,Acu-Link.com,2013-11-01 21:45:00,
2013-11-01 18:01:00,68.7,37.6,29.54,SW,225,6.3,-999.0,32,-99.99,,,0.02,Acu-Link.com,2013-11-01 22:01:00,
2013-11-01 18:16:00,68.5,42.6,29.54,SSW,202,5.8,-999.0,39,-99.99,,,0.02,Acu-Link.com,2013-11-01 22:16:00,
2013-11-01 18:31:00,68.4,43.1,29.56,SSW,202,3.7,-999.0,40,-99.99,,,0.02,Acu-Link.com,2013-11-01 22:31:00,
2013-11-01 18:46:00,68.2,45.4,29.56,SSW,202,5.8,-999.0,44,-99.99,,,0.02,Acu-Link.com,2013-11-01 22:46:00,
2013-11-01 19:01:00,68.4,50.1,29.55,SSW,202,4.7,-999.0,52,-99.99,,,0.02,Acu-Link.com,2013-11-01 23:01:00,
2013-11-01 19:16:00,68.2,51.4,29.58,West,270,4.2,-999.0,55,-99.99,,,0.02,Acu-Link.com,2013-11-01 23:16:00,
2013-11-01 19:31:00,68.2,52.9,29.56,West,270,3.2,-999.0,58,-99.99,,,0.02,Acu-Link.com,2013-11-01 23:31:00,
2013-11-01 19:46:00,68.4,54.0,29.56,WSW,247,3.2,-999.0,60,-99.99,,,0.02,Acu-Link.com,2013-11-01 23:46:00,
2013-11-01 20:02:00,68.5,55.8,29.54,WSW,247,4.2,-999.0,64,-99.99,,,0.02,Acu-Link.com,2013-11-02 00:02:00,
2013-11-01 20:17:00,68.2,56.0,29.54,WSW,247,5.3,-999.0,65,-99.99,,,0.02,Acu-Link.com,2013-11-02 00:17:00,
2013-11-01 20:32:00,68.4,57.8,29.55,SW,225,3.7,-999.0,69,-99.99,,,0.02,Acu-Link.com,2013-11-02 00:32:00,
2013-11-01 20:47:00,68.5,59.5,29.57,SSW,202,5.3,-999.0,73,-99.99,,,0.02,Acu-Link.com,2013-11-02 00:47:00,
2013-11-01 21:02:00,68.7,60.1,29.57,SW,225,3.2,-999.0,74,-99.99,,,0.02,Acu-Link.com,2013-11-02 01:02:00,
2013-11-01 21:18:00,68.7,61.2,29.58,SSW,202,7.8,-999.0,77,-99.99,,,0.02,Acu-Link.com,2013-11-02 01:18:00,
2013-11-01 21:34:00,68.7,61.9,29.57,SSW,202,4.2,-999.0,79,-99.99,,,0.02,Acu-Link.com,2013-11-02 01:34:00,
2013-11-01 21:49:00,68.5,61.4,29.57,SSW,202,0.0,-999.0,78,-99.99,,,0.02,Acu-Link.com,2013-11-02 01:49:00,
2013-11-01 22:04:00,68.5,63.1,29.56,SSW,202,3.7,-999.0,83,-99.99,,,0.02,Acu-Link.com,2013-11-02 02:04:00,
2013-11-01 22:19:00,68.9,64.9,29.55,SSW,202,1.7,-999.0,87,-99.99,,,0.02,Acu-Link.com,2013-11-02 02:19:00,
2013-11-01 22:35:00,68.9,65.2,29.54,SW,225,1.7,-999.0,88,-99.99,,,0.02,Acu-Link.com,2013-11-02 02:35:00,
2013-11-01 22:50:00,68.7,66.0,29.54,SW,225,1.7,-999.0,91,-99.99,,,0.02,Acu-Link.com,2013-11-02 02:50:00,
2013-11-01 23:05:00,68.5,66.1,29.55,SW,225,7.8,-999.0,92,-99.99,,,0.02,Acu-Link.com,2013-11-02 03:05:00,
2013-11-01 23:20:00,68.7,66.6,29.55,South,180,5.3,-999.0,93,-99.99,,,0.02,Acu-Link.com,2013-11-02 03:20:00,
2013-11-01 23:36:00,68.7,66.9,29.54,South,180,4.2,-999.0,94,-99.99,,,0.03,Acu-Link.com,2013-11-02 03:36:00,
2013-11-01 23:51:00,68.5,67.3,29.53,SSW,202,3.7,-999.0,96,-99.99,,,0.03,Acu-Link.com,2013-11-02 03:51:00,